QPF
0.00 0.00 0.00 0.00 0.00 0.00 0.00 0.00 0.00 0.00 0.00 0.00 0.00 0.00 0.00 0.00 0.00 0.01 0.01 0.01 0.00 0.00 0.01 0.01 0.01 0.00 0.00 0.00 0.00 0.00 0.00 0.00 0.00 0.00 0.01 0.02 0.02 0.02 0.02 0.01 0.01 0.01 0.01
0.00 0.00 0.00 0.00 0.00 0.00 0.00 0.00 0.00 0.00 0.00 0.00 0.00 0.00 0.00 0.00 0.00 0.00 0.00 0.00 0.00 0.00 0.00 0.00 0.00 0.00 0.00 0.00 0.00 0.00 0.00 0.00 0.00 0.00 0.00 0.00 0.01 0.02 0.02 0.01 0.01 0.01 0.02
0.00 0.00 0.00 0.00 0.00 0.00 0.00 0.00 0.00 0.00 0.00 0.00 0.00 0.00 0.00 0.00 0.00 0.00 0.00 0.00 0.00 0.00 0.00 0.00 0.00 0.00 0.00 0.00 0.00 0.00 0.00 0.00 0.00 0.00 0.00 0.00 0.01 0.02 0.02 0.01 0.01 0.01 0.01
0.00 0.00 0.00 0.00 0.00 0.00 0.00 0.00 0.00 0.00 0.00 0.00 0.00 0.00 0.00 0.00 0.00 0.00 0.00 0.00 0.00 0.00 0.00 0.00 0.00 0.00 0.00 0.00 0.00 0.00 0.00 0.00 0.00 0.00 0.00 0.00 0.00 0.01 0.02 0.01 0.01 0.01 0.01
0.00 0.00 0.00 0.00 0.00 0.00 0.00 0.00 0.00 0.00 0.00 0.00 0.00 0.00 0.00 0.00 0.00 0.00 0.00 0.00 0.00 0.00 0.00 0.00 0.00 0.00 0.00 0.00 0.00 0.00 0.00 0.00 0.00 0.00 0.00 0.00 0.00 0.01 0.01 0.01 0.01 0.01 0.01
0.00 0.00 0.00 0.00 0.00 0.00 0.00 0.00 0.00 0.00 0.00 0.00 0.00 0.00 0.00 0.00 0.00 0.00 0.00 0.00 0.00 0.00 0.00 0.00 0.00 0.00 0.00 0.00 0.00 0.00 0.00 0.00 0.00 0.00 0.00 0.00 0.00 0.01 0.01 0.01 0.01 0.01 0.01
0.00 0.00 0.00 0.00 0.00 0.00 0.00 0.00 0.00 0.00 0.00 0.00 0.00 0.00 0.00 0.00 0.00 0.00 0.00 0.00 0.00 0.00 0.00 0.00 0.00 0.00 0.00 0.00 0.00 0.00 0.00 0.00 0.00 0.00 0.00 0.00 0.00 0.00 0.01 0.01 0.01 0.01 0.01
0.00 0.00 0.00 0.00 0.00 0.00 0.00 0.00 0.00 0.00 0.00 0.00 0.00 0.00 0.00 0.00 0.00 0.00 0.00 0.00 0.00 0.00 0.00 0.00 0.00 0.00 0.00 0.00 0.00 0.00 0.00 0.00 0.00 0.00 0.00 0.00 0.00 0.00 0.00 0.00 0.00 0.00 0.00
0.00 0.00 0.00 0.00 0.00 0.00 0.00 0.00 0.00 0.00 0.00 0.00 0.00 0.00 0.00 0.00 0.00 0.00 0.00 0.00 0.00 0.00 0.00 0.00 0.00 0.00 0.00 0.00 0.00 0.00 0.00 0.00 0.00 0.00 0.00 0.00 0.00 0.00 0.00 0.00 0.00 0.00 0.00
0.00 0.00 0.00 0.00 0.00 0.00 0.00 0.00 0.00 0.00 0.00 0.00 0.00 0.00 0.00 0.00 0.00 0.00 0.00 0.00 0.00 0.00 0.00 0.00 0.00 0.00 0.00 0.00 0.00 0.00 0.00 0.00 0.00 0.00 0.00 0.00 0.00 0.00 0.00 0.00 0.00 0.00 0.00
0.00 0.00 0.00 0.00 0.00 0.00 0.00 0.00 0.00 0.00 0.00 0.00 0.00 0.00 0.00 0.00 0.00 0.00 0.00 0.00 0.00 0.00 0.00 0.00 0.00 0.00 0.00 0.00 0.00 0.00 0.00 0.00 0.00 0.00 0.00 0.00 0.00 0.00 0.00 0.00 0.00 0.00 0.00
0.00 0.00 0.00 0.00 0.00 0.00 0.00 0.00 0.00 0.00 0.00 0.00 0.00 0.00 0.00 0.00 0.00 0.00 0.00 0.00 0.00 0.00 0.00 0.00 0.00 0.00 0.00 0.00 0.00 0.00 0.00 0.00 0.00 0.00 0.00 0.00 0.00 0.00 0.00 0.00 0.00 0.00 0.00
0.00 0.00 0.00 0.00 0.00 0.00 0.00 0.00 0.00 0.00 0.00 0.00 0.00 0.00 0.00 0.00 0.00 0.00 0.00 0.00 0.00 0.00 0.00 0.00 0.00 0.00 0.00 0.00 0.00 0.00 0.00 0.00 0.00 0.00 0.00 0.00 0.00 0.00 0.00 0.00 0.00 0.00 0.00
0.00 0.00 0.00 0.00 0.00 0.00 0.00 0.00 0.00 0.00 0.00 0.00 0.00 0.00 0.00 0.00 0.00 0.00 0.00 0.00 0.00 0.00 0.00 0.00 0.00 0.00 0.00 0.00 0.00 0.00 0.00 0.00 0.00 0.00 0.00 0.00 0.00 0.00 0.00 0.00 0.00 0.00 0.00
0.00 0.00 0.00 0.00 0.00 0.00 0.00 0.00 0.00 0.00 0.00 0.00 0.00 0.00 0.00 0.00 0.00 0.00 0.00 0.00 0.00 0.00 0.00 0.00 0.00 0.00 0.00 0.00 0.00 0.00 0.00 0.00 0.00 0.00 0.00 0.00 0.00 0.00 0.00 0.00 0.00 0.00 0.00
0.00 0.00 0.00 0.00 0.00 0.00 0.00 0.00 0.00 0.00 0.00 0.00 0.00 0.00 0.00 0.00 0.00 0.00 0.00 0.00 0.00 0.00 0.00 0.00 0.00 0.00 0.00 0.00 0.00 0.00 0.00 0.00 0.00 0.00 0.00 0.00 0.00 0.00 0.00 0.00 0.00 0.00 0.00
0.00 0.00 0.00 0.00 0.00 0.00 0.00 0.00 0.00 0.00 0.00 0.00 0.00 0.00 0.00 0.00 0.00 0.00 0.00 0.00 0.00 0.00 0.00 0.00 0.00 0.00 0.00 0.00 0.00 0.00 0.00 0.00 0.00 0.00 0.00 0.00 0.00 0.00 0.00 0.00 0.00 0.00 0.00
0.00 0.00 0.00 0.00 0.00 0.00 0.00 0.00 0.00 0.00 0.00 0.00 0.00 0.00 0.00 0.00 0.00 0.00 0.00 0.00 0.00 0.00 0.00 0.00 0.00 0.00 0.00 0.00 0.00 0.00 0.00 0.00 0.00 0.00 0.00 0.00 0.00 0.00 0.00 0.00 0.00 0.00 0.00
0.00 0.00 0.00 0.00 0.00 0.00 0.00 0.00 0.00 0.00 0.00 0.00 0.00 0.00 0.00 0.00 0.00 0.00 0.00 0.00 0.00 0.00 0.00 0.00 0.00 0.00 0.00 0.00 0.00 0.00 0.00 0.00 0.00 0.00 0.00 0.00 0.00 0.00 0.00 0.00 0.00 0.00 0.00
0.00 0.00 0.00 0.00 0.00 0.00 0.00 0.00 0.00 0.00 0.00 0.00 0.00 0.00 0.00 0.00 0.00 0.00 0.00 0.00 0.00 0.00 0.00 0.00 0.00 0.00 0.00 0.00 0.00 0.00 0.00 0.00 0.00 0.00 0.00 0.00 0.00 0.00 0.00 0.00 0.00 0.00 0.00
0.00 0.00 0.00 0.00 0.00 0.00 0.00 0.00 0.00 0.00 0.00 0.00 0.00 0.00 0.00 0.00 0.00 0.00 0.00 0.00 0.00 0.00 0.00 0.00 0.00 0.00 0.00 0.00 0.00 0.00 0.00 0.00 0.00 0.00 0.00 0.00 0.00 0.00 0.00 0.00 0.00 0.00 0.00
0.00 0.00 0.00 0.00 0.00 0.00 0.00 0.00 0.00 0.00 0.00 0.00 0.00 0.00 0.00 0.00 0.00 0.00 0.00 0.00 0.00 0.00 0.00 0.00 0.00 0.00 0.00 0.00 0.00 0.00 0.00 0.00 0.00 0.00 0.00 0.00 0.00 0.00 0.00 0.00 0.00 0.00 0.00
0.00 0.00 0.00 0.00 0.00 0.00 0.00 0.00 0.00 0.00 0.00 0.00 0.00 0.00 0.00 0.00 0.00 0.00 0.00 0.00 0.00 0.00 0.00 0.00 0.00 0.00 0.00 0.00 0.00 0.00 0.00 0.00 0.00 0.00 0.00 0.00 0.00 0.00 0.00 0.00 0.00 0.00 0.00
0.00 0.00 0.00 0.00 0.00 0.00 0.00 0.00 0.00 0.00 0.00 0.00 0.00 0.00 0.00 0.00 0.00 0.00 0.00 0.00 0.00 0.00 0.00 0.00 0.00 0.00 0.00 0.00 0.00 0.00 0.00 0.00 0.00 0.00 0.00 0.00 0.00 0.00 0.00 0.00 0.00 0.00 0.00
0.00 0.00 0.00 0.00 0.00 0.00 0.00 0.00 0.00 0.00 0.00 0.00 0.00 0.00 0.00 0.00 0.00 0.00 0.00 0.00 0.00 0.00 0.00 0.00 0.00 0.00 0.00 0.00 0.00 0.00 0.00 0.00 0.00 0.00 0.00 0.00 0.00 0.00 0.00 0.00 0.00 0.00 0.00
0.00 0.00 0.00 0.00 0.00 0.00 0.00 0.00 0.00 0.00 0.00 0.00 0.00 0.00 0.00 0.00 0.00 0.00 0.00 0.00 0.00 0.00 0.00 0.00 0.00 0.00 0.00 0.00 0.00 0.00 0.00 0.00 0.00 0.00 0.00 0.00 0.00 0.00 0.00 0.00 0.00 0.00 0.00
MSLP
1021.74 1021.73 1021.79 1021.95 1022.20 1022.51 1022.84 1023.14 1023.37 1023.51 1023.57 1023.58 1023.58 1023.60 1023.66 1023.77 1023.92 1024.09 1024.25 1024.36 1024.43 1024.45 1024.42 1024.39 1024.35 1024.33 1024.32 1024.33 1024.34 1024.32 1024.28 1024.19 1024.06 1023.90 1023.73 1023.55 1023.38 1023.23 1023.09 1022.97 1022.85 1022.73 1022.62
1021.08 1021.14 1021.28 1021.50 1021.81 1022.17 1022.55 1022.90 1023.17 1023.37 1023.50 1023.58 1023.67 1023.78 1023.93 1024.13 1024.36 1024.59 1024.78 1024.92 1024.98 1024.98 1024.94 1024.87 1024.81 1024.77 1024.75 1024.77 1024.79 1024.80 1024.79 1024.74 1024.65 1024.52 1024.35 1024.18 1023.99 1023.81 1023.63 1023.46 1023.31 1023.16 1023.02
1020.46 1020.59 1020.78 1021.06 1021.43 1021.84 1022.26 1022.66 1022.99 1023.25 1023.45 1023.62 1023.78 1023.98 1024.21 1024.48 1024.76 1025.02 1025.23 1025.37 1025.42 1025.41 1025.35 1025.26 1025.18 1025.13 1025.12 1025.15 1025.19 1025.24 1025.27 1025.26 1025.21 1025.11 1024.97 1024.80 1024.60 1024.39 1024.18 1023.97 1023.77 1023.60 1023.44
1019.94 1020.12 1020.37 1020.70 1021.11 1021.57 1022.03 1022.47 1022.85 1023.16 1023.42 1023.66 1023.88 1024.14 1024.42 1024.72 1025.02 1025.29 1025.50 1025.63 1025.68 1025.67 1025.60 1025.52 1025.45 1025.42 1025.43 1025.48 1025.55 1025.64 1025.70 1025.74 1025.73 1025.66 1025.55 1025.38 1025.17 1024.94 1024.69 1024.45 1024.22 1024.02 1023.85
1019.56 1019.79 1020.08 1020.45 1020.89 1021.38 1021.86 1022.33 1022.73 1023.09 1023.38 1023.65 1023.92 1024.20 1024.49 1024.80 1025.09 1025.36 1025.56 1025.69 1025.74 1025.74 1025.71 1025.66 1025.63 1025.64 1025.69 1025.77 1025.88 1026.00 1026.10 1026.17 1026.19 1026.15 1026.04 1025.88 1025.66 1025.41 1025.14 1024.87 1024.62 1024.41 1024.24
1019.33 1019.59 1019.91 1020.31 1020.77 1021.26 1021.75 1022.22 1022.63 1022.99 1023.30 1023.58 1023.85 1024.14 1024.42 1024.72 1025.00 1025.24 1025.43 1025.57 1025.65 1025.69 1025.71 1025.72 1025.76 1025.82 1025.93 1026.05 1026.20 1026.34 1026.46 1026.55 1026.58 1026.54 1026.44 1026.27 1026.04 1025.78 1025.49 1025.20 1024.95 1024.74 1024.57
1019.23 1019.51 1019.85 1020.26 1020.72 1021.20 1021.68 1022.12 1022.52 1022.86 1023.16 1023.43 1023.70 1023.97 1024.24 1024.52 1024.78 1025.02 1025.21 1025.37 1025.49 1025.59 1025.67 1025.77 1025.88 1026.01 1026.17 1026.33 1026.49 1026.65 1026.77 1026.85 1026.88 1026.84 1026.73 1026.55 1026.31 1026.03 1025.73 1025.45 1025.20 1025.00 1024.85
1019.22 1019.51 1019.85 1020.26 1020.70 1021.15 1021.60 1022.01 1022.37 1022.68 1022.96 1023.22 1023.48 1023.75 1024.02 1024.29 1024.55 1024.79 1025.01 1025.19 1025.36 1025.52 1025.68 1025.84 1026.02 1026.21 1026.41 1026.59 1026.76 1026.91 1027.01 1027.08 1027.08 1027.02 1026.90 1026.71 1026.47 1026.18 1025.89 1025.61 1025.37 1025.19 1025.07
1019.23 1019.53 1019.87 1020.26 1020.68 1021.10 1021.50 1021.86 1022.18 1022.46 1022.73 1022.99 1023.26 1023.54 1023.83 1024.12 1024.40 1024.66 1024.90 1025.12 1025.33 1025.53 1025.75 1025.97 1026.19 1026.42 1026.63 1026.82 1026.98 1027.10 1027.18 1027.21 1027.19 1027.11 1026.98 1026.79 1026.54 1026.27 1025.99 1025.72 1025.50 1025.34 1025.24
1019.21 1019.50 1019.84 1020.22 1020.62 1021.01 1021.37 1021.69 1021.97 1022.24 1022.50 1022.78 1023.08 1023.40 1023.73 1024.06 1024.38 1024.67 1024.93 1025.17 1025.40 1025.63 1025.87 1026.11 1026.36 1026.59 1026.80 1026.97 1027.11 1027.20 1027.25 1027.26 1027.22 1027.13 1026.99 1026.81 1026.58 1026.32 1026.06 1025.81 1025.60 1025.45 1025.37
1019.09 1019.39 1019.74 1020.12 1020.50 1020.87 1021.20 1021.49 1021.76 1022.02 1022.30 1022.61 1022.96 1023.34 1023.73 1024.11 1024.47 1024.79 1025.07 1025.32 1025.56 1025.78 1026.01 1026.24 1026.47 1026.69 1026.88 1027.03 1027.14 1027.21 1027.24 1027.22 1027.18 1027.09 1026.96 1026.80 1026.59 1026.36 1026.12 1025.89 1025.69 1025.55 1025.46
1018.81 1019.13 1019.51 1019.92 1020.31 1020.68 1021.00 1021.28 1021.54 1021.82 1022.12 1022.48 1022.89 1023.33 1023.79 1024.23 1024.63 1024.97 1025.26 1025.50 1025.71 1025.91 1026.10 1026.30 1026.50 1026.68 1026.85 1026.98 1027.07 1027.12 1027.14 1027.12 1027.08 1027.00 1026.90 1026.76 1026.59 1026.39 1026.18 1025.96 1025.77 1025.62 1025.51
1018.34 1018.72 1019.15 1019.60 1020.03 1020.41 1020.74 1021.04 1021.31 1021.61 1021.96 1022.36 1022.83 1023.33 1023.84 1024.33 1024.76 1025.11 1025.39 1025.61 1025.79 1025.95 1026.10 1026.26 1026.42 1026.58 1026.72 1026.84 1026.92 1026.97 1026.98 1026.97 1026.94 1026.88 1026.80 1026.69 1026.56 1026.39 1026.20 1026.00 1025.81 1025.64 1025.50
1017.70 1018.14 1018.64 1019.15 1019.63 1020.06 1020.43 1020.75 1021.05 1021.38 1021.77 1022.21 1022.72 1023.26 1023.81 1024.32 1024.77 1025.13 1025.40 1025.59 1025.74 1025.86 1025.98 1026.11 1026.26 1026.40 1026.53 1026.65 1026.73 1026.78 1026.79 1026.79 1026.76 1026.71 1026.65 1026.57 1026.46 1026.32 1026.16 1025.97 1025.78 1025.60 1025.43
1016.92 1017.42 1018.00 1018.58 1019.12 1019.61 1020.02 1020.39 1020.74 1021.10 1021.51 1021.98 1022.51 1023.07 1023.63 1024.15 1024.59 1024.95 1025.21 1025.40 1025.54 1025.65 1025.77 1025.89 1026.04 1026.18 1026.33 1026.45 1026.53 1026.58 1026.59 1026.57 1026.53 1026.48 1026.42 1026.34 1026.25 1026.14 1026.00 1025.83 1025.65 1025.46 1025.27
1016.05 1016.61 1017.24 1017.89 1018.50 1019.05 1019.53 1019.94 1020.34 1020.73 1021.16 1021.64 1022.17 1022.72 1023.26 1023.77 1024.21 1024.56 1024.83 1025.04 1025.19 1025.33 1025.48 1025.63 1025.81 1025.98 1026.14 1026.27 1026.35 1026.39 1026.38 1026.33 1026.25 1026.17 1026.08 1025.99 1025.90 1025.80 1025.69 1025.55 1025.39 1025.21 1025.02
1015.19 1015.77 1016.43 1017.12 1017.79 1018.39 1018.93 1019.41 1019.85 1020.27 1020.71 1021.18 1021.69 1022.21 1022.73 1023.21 1023.64 1024.01 1024.30 1024.54 1024.75 1024.95 1025.16 1025.37 1025.59 1025.81 1025.99 1026.12 1026.19 1026.19 1026.14 1026.03 1025.90 1025.76 1025.63 1025.51 1025.41 1025.31 1025.22 1025.12 1024.99 1024.85 1024.68
1014.42 1014.98 1015.64 1016.34 1017.03 1017.68 1018.27 1018.80 1019.29 1019.74 1020.18 1020.64 1021.11 1021.59 1022.07 1022.52 1022.94 1023.32 1023.66 1023.96 1024.25 1024.53 1024.81 1025.10 1025.38 1025.63 1025.83 1025.96 1026.00 1025.96 1025.84 1025.66 1025.46 1025.25 1025.06 1024.90 1024.78 1024.69 1024.62 1024.56 1024.49 1024.39 1024.27
1013.82 1014.32 1014.92 1015.59 1016.28 1016.95 1017.58 1018.16 1018.68 1019.16 1019.61 1020.04 1020.47 1020.90 1021.33 1021.76 1022.17 1022.57 1022.95 1023.32 1023.69 1024.06 1024.43 1024.79 1025.13 1025.41 1025.61 1025.73 1025.73 1025.64 1025.45 1025.21 1024.93 1024.65 1024.40 1024.20 1024.06 1023.97 1023.93 1023.91 1023.90 1023.86 1023.81
1013.45 1013.83 1014.33 1014.93 1015.59 1016.26 1016.91 1017.52 1018.08 1018.57 1019.02 1019.42 1019.81 1020.19 1020.57 1020.96 1021.36 1021.77 1022.19 1022.62 1023.07 1023.52 1023.96 1024.38 1024.75 1025.05 1025.25 1025.34 1025.32 1025.18 1024.95 1024.65 1024.31 1023.98 1023.69 1023.46 1023.30 1023.22 1023.20 1023.22 1023.25 1023.29 1023.29
1013.30 1013.54 1013.92 1014.43 1015.02 1015.67 1016.32 1016.94 1017.51 1018.01 1018.44 1018.82 1019.16 1019.48 1019.81 1020.15 1020.52 1020.93 1021.38 1021.85 1022.34 1022.84 1023.32 1023.77 1024.16 1024.46 1024.66 1024.74 1024.70 1024.55 1024.30 1023.98 1023.63 1023.29 1022.98 1022.73 1022.57 1022.49 1022.47 1022.52 1022.59 1022.67 1022.73
1013.37 1013.47 1013.71 1014.10 1014.61 1015.20 1015.83 1016.44 1017.01 1017.50 1017.91 1018.25 1018.53 1018.79 1019.05 1019.34 1019.67 1020.05 1020.49 1020.96 1021.47 1021.97 1022.46 1022.91 1023.29 1023.59 1023.79 1023.87 1023.85 1023.72 1023.50 1023.22 1022.90 1022.58 1022.29 1022.05 1021.89 1021.80 1021.79 1021.83 1021.91 1022.02 1022.11
1013.62 1013.58 1013.69 1013.96 1014.37 1014.89 1015.47 1016.05 1016.59 1017.05 1017.42 1017.70 1017.92 1018.10 1018.29 1018.50 1018.77 1019.10 1019.49 1019.94 1020.41 1020.89 1021.35 1021.77 1022.13 1022.42 1022.63 1022.74 1022.77 1022.70 1022.57 1022.37 1022.13 1021.87 1021.63 1021.42 1021.26 1021.17 1021.14 1021.16 1021.23 1021.33 1021.43
1013.97 1013.83 1013.83 1013.98 1014.29 1014.73 1015.23 1015.75 1016.24 1016.65 1016.96 1017.18 1017.32 1017.42 1017.52 1017.65 1017.83 1018.08 1018.40 1018.78 1019.18 1019.60 1020.00 1020.38 1020.71 1020.99 1021.22 1021.39 1021.49 1021.53 1021.51 1021.44 1021.32 1021.16 1020.99 1020.82 1020.67 1020.56 1020.49 1020.48 1020.52 1020.58 1020.67
1014.38 1014.16 1014.07 1014.13 1014.34 1014.68 1015.10 1015.54 1015.95 1016.29 1016.53 1016.66 1016.72 1016.73 1016.74 1016.77 1016.86 1017.02 1017.25 1017.53 1017.84 1018.17 1018.50 1018.82 1019.12 1019.40 1019.65 1019.88 1020.09 1020.25 1020.37 1020.44 1020.45 1020.40 1020.30 1020.18 1020.05 1019.92 1019.82 1019.77 1019.76 1019.80 1019.86
1014.78 1014.52 1014.36 1014.34 1014.47 1014.71 1015.03 1015.38 1015.71 1015.95 1016.10 1016.15 1016.13 1016.05 1015.97 1015.91 1015.90 1015.97 1016.09 1016.27 1016.48 1016.71 1016.96 1017.21 1017.47 1017.73 1018.02 1018.31 1018.61 1018.90 1019.15 1019.35 1019.49 1019.54 1019.52 1019.45 1019.33 1019.20 1019.08 1018.99 1018.95 1018.96 1019.01
Thickness
5698 5697 5696 5692 5689 5686 5685 5683 5682 5680 5679 5677 5676 5675 5675 5674 5673 5673 5672 5671 5671 5671 5672 5672 5672 5673 5673 5674 5675 5676 5676 5677 5678 5679 5681 5684 5685 5686 5686 5687 5688 5690 5691
5707 5700 5698 5694 5690 5687 5685 5683 5681 5679 5677 5676 5674 5673 5672 5671 5670 5669 5668 5667 5667 5667 5667 5667 5667 5668 5668 5669 5669 5670 5670 5670 5671 5672 5674 5676 5678 5679 5680 5681 5682 5683 5685
5707 5702 5699 5695 5691 5688 5685 5683 5680 5678 5676 5674 5672 5671 5669 5668 5667 5666 5664 5663 5663 5662 5662 5662 5662 5662 5662 5663 5663 5664 5664 5663 5664 5665 5667 5669 5671 5673 5674 5674 5675 5676 5678
5708 5703 5700 5696 5692 5689 5685 5682 5679 5677 5674 5672 5670 5668 5667 5665 5664 5663 5661 5660 5659 5658 5658 5657 5657 5657 5657 5657 5658 5657 5657 5657 5656 5658 5660 5662 5664 5666 5667 5667 5668 5669 5670
5707 5704 5701 5696 5692 5689 5685 5682 5679 5676 5673 5671 5668 5666 5664 5663 5661 5660 5658 5657 5656 5654 5653 5653 5652 5652 5651 5651 5652 5651 5650 5649 5649 5650 5653 5655 5657 5658 5659 5660 5661 5662 5663
5708 5704 5700 5696 5692 5688 5685 5681 5678 5675 5672 5670 5667 5665 5663 5661 5659 5657 5655 5653 5652 5650 5649 5648 5647 5647 5646 5646 5646 5645 5644 5642 5642 5643 5645 5647 5649 5651 5651 5652 5653 5654 5655
5708 5703 5699 5696 5691 5688 5684 5681 5677 5674 5671 5669 5666 5664 5661 5659 5657 5654 5652 5650 5648 5647 5645 5644 5643 5642 5641 5641 5641 5640 5638 5636 5636 5636 5638 5640 5642 5643 5644 5644 5645 5646 5647
5707 5702 5697 5694 5690 5686 5683 5679 5676 5673 5670 5668 5665 5662 5660 5657 5654 5652 5650 5647 5645 5643 5641 5640 5638 5637 5636 5636 5635 5635 5633 5631 5630 5630 5631 5633 5635 5636 5637 5637 5637 5638 5639
5702 5698 5695 5693 5689 5685 5681 5678 5675 5672 5669 5666 5664 5661 5658 5655 5652 5650 5647 5645 5642 5640 5638 5636 5634 5633 5632 5631 5630 5629 5628 5625 5625 5624 5625 5627 5628 5629 5629 5629 5629 5630 5630
5697 5694 5692 5690 5687 5684 5680 5676 5673 5670 5667 5665 5662 5659 5656 5653 5650 5648 5645 5642 5640 5637 5635 5633 5631 5629 5627 5626 5625 5624 5622 5620 5619 5619 5619 5620 5621 5622 5621 5621 5621 5621 5622
5693 5691 5689 5687 5685 5681 5678 5674 5671 5668 5666 5663 5660 5657 5654 5651 5648 5646 5642 5640 5637 5635 5632 5630 5627 5625 5623 5622 5621 5619 5617 5616 5615 5614 5613 5614 5614 5614 5614 5613 5613 5613 5613
5695 5692 5689 5686 5682 5679 5675 5672 5670 5667 5664 5661 5658 5655 5652 5648 5645 5642 5639 5637 5634 5632 5629 5627 5624 5622 5620 5618 5616 5615 5613 5611 5610 5609 5608 5608 5607 5607 5607 5606 5605 5605 5605
5701 5693 5689 5685 5681 5677 5674 5670 5667 5665 5662 5659 5656 5652 5649 5645 5641 5638 5636 5633 5631 5629 5626 5623 5620 5618 5616 5613 5611 5610 5608 5607 5605 5604 5603 5602 5601 5600 5600 5599 5598 5597 5597
5698 5695 5691 5685 5681 5677 5673 5669 5665 5662 5659 5656 5653 5650 5646 5641 5638 5635 5632 5629 5627 5625 5621 5618 5615 5613 5610 5608 5606 5605 5603 5602 5600 5599 5597 5596 5595 5594 5593 5592 5591 5589 5588
5698 5695 5691 5686 5682 5677 5672 5668 5664 5660 5657 5653 5649 5646 5643 5638 5634 5631 5628 5625 5622 5619 5616 5613 5610 5607 5605 5602 5600 5599 5598 5596 5594 5593 5591 5589 5588 5587 5585 5584 5583 5581 5580
5700 5697 5692 5687 5682 5677 5672 5667 5664 5659 5655 5650 5646 5643 5640 5636 5631 5627 5623 5620 5617 5614 5611 5608 5605 5602 5599 5596 5595 5593 5592 5590 5588 5586 5584 5582 5581 5579 5578 5576 5575 5573 5571
5703 5699 5693 5687 5681 5676 5672 5667 5661 5657 5652 5648 5644 5640 5636 5633 5628 5623 5619 5615 5612 5608 5605 5602 5598 5595 5592 5590 5588 5587 5586 5584 5582 5580 5578 5575 5573 5571 5569 5568 5566 5564 5562
5702 5696 5692 5686 5680 5675 5670 5665 5659 5654 5649 5645 5641 5636 5632 5628 5624 5619 5615 5611 5606 5602 5599 5595 5592 5588 5586 5583 5581 5580 5579 5577 5575 5573 5571 5568 5566 5563 5561 5559 5557 5555 5553
5702 5696 5690 5684 5680 5673 5667 5662 5656 5651 5647 5642 5637 5633 5628 5623 5618 5614 5611 5607 5601 5596 5592 5589 5586 5582 5579 5576 5574 5572 5571 5570 5568 5566 5564 5561 5559 5556 5553 5549 5547 5545 5542
5701 5694 5688 5682 5676 5669 5661 5654 5649 5645 5642 5638 5634 5630 5625 5619 5614 5609 5605 5600 5594 5589 5586 5581 5579 5575 5572 5568 5564 5565 5564 5563 5561 5559 5557 5554 5552 5548 5545 5540 5537 5534 5531
5696 5690 5685 5679 5672 5664 5656 5650 5645 5643 5639 5635 5632 5627 5622 5616 5610 5604 5600 5594 5588 5584 5581 5576 5571 5566 5562 5555 5549 5550 5554 5555 5556 5555 5551 5548 5546 5541 5537 5532 5528 5524 5521
5689 5685 5681 5676 5670 5663 5658 5652 5645 5640 5635 5631 5625 5621 5617 5611 5606 5600 5595 5590 5584 5579 5574 5570 5563 5557 5554 5545 5539 5534 5537 5547 5552 5552 5549 5545 5540 5533 5529 5524 5519 5515 5511
5680 5678 5676 5671 5666 5660 5654 5645 5637 5630 5626 5621 5617 5615 5612 5608 5603 5598 5593 5587 5581 5575 5571 5565 5558 5551 5546 5540 5534 5527 5521 5536 5538 5543 5541 5538 5532 5526 5521 5515 5510 5506 5502
5672 5670 5667 5663 5658 5652 5645 5638 5631 5627 5624 5623 5619 5614 5609 5603 5599 5594 5589 5583 5578 5572 5568 5562 5555 5548 5540 5536 5527 5525 5523 5520 5516 5525 5529 5525 5521 5517 5511 5506 5502 5497 5493
5661 5659 5656 5653 5648 5643 5637 5632 5626 5623 5622 5617 5611 5606 5602 5597 5594 5590 5584 5579 5574 5569 5564 5558 5551 5544 5538 5533 5526 5519 5513 5508 5503 5497 5511 5513 5505 5505 5500 5495 5491 5487 5482
5648 5647 5645 5642 5638 5633 5628 5622 5617 5614 5611 5606 5602 5598 5595 5592 5588 5584 5579 5574 5570 5565 5560 5553 5546 5540 5535 5529 5523 5515 5507 5503 5502 5492 5493 5501 5495 5494 5489 5486 5482 5477 5472